Weather Roundup
Issued by NWS

Home | Current Version | Previous Version | Text Only | Print | Product List | Glossary On
Versions: 1 2 3 4 5 6 7 8 9 10 11 12 13 14 15 16 17 18 19 20 21 22 23 24 25 26 27 28 29 30 31 32 33 34 35 36 37 38 39 40 41 42 43 44 45 46 47 48 49 50
000
NZUS93 KARX 242310
HRRWXR

CURRENT HOURLY OBSERVATIONS ACROSS
MUCH OF THE UPPER MISSISSIPPI VALLEY
NATIONAL WEATHER SERVICE LA CROSSE WI
600 PM CDT THU APR 24 2014


...SOUTHEAST MINNESOTA...


CITY           SKY/WX    TMP DP  RH WIND       PRES   REMARKS
ROCHESTER      CLOUDY    46  41  82 NW14      29.68R HAZE
ROCHESTER/MAYO CLOUDY    46  43  86 W9G17     29.68R
WINONA         CLOUDY    43  43 100 CALM      29.68R FOG
AUSTIN         CLOUDY    48  43  81 NW10      29.68R
ALBERT LEA     CLOUDY    48  43  81 NW8       29.69S
DODGE CENTER   CLOUDY    48  45  87 NW9       29.68R
PRESTON        CLOUDY    47  45  90 W6        29.67R
OWATONNA       CLOUDY    48  43  81 W9        29.69R
FARIBAULT      PTSUNNY   48  43  81 W9        29.70R
$$

...ELSEWHERE IN MINNESOTA...


CITY           SKY/WX    TMP DP  RH WIND       PRES   REMARKS
MINNEAPOLIS    CLOUDY    45  41  86 W9        29.69R
INTNL FALLS    LGT SNOW  33  32  96 E12       29.75F VSB 1   WCI  24
DULUTH         LGT SNOW  33  30  88 E20       29.71S VSB 1   WCI  21
RED WING       CLOUDY    45  43  93 CALM      29.68R FOG
REDWOOD FALLS  MOSUNNY   55  43  63 NW10      29.70S
MANKATO        CLOUDY    48  43  81 NW10      29.71R
WORTHINGTON    MOSUNNY   55  39  54 N8        29.72F
FAIRMONT       CLOUDY    54  43  66 NW16      29.72S
$$

...SOUTHWEST WISCONSIN...


CITY           SKY/WX    TMP DP  RH WIND       PRES   REMARKS
LA CROSSE      LGT RAIN  47  45  93 W3        29.66S VSB 1
PRAIRIE DU CHI LGT RAIN  51  49  92 CALM      29.67F
BOSCOBEL       RAIN      52  49  89 CALM      29.68S FOG
LONE ROCK      LGT RAIN  52  48  86 SE3       29.67F FOG
PLATTEVILLE    CLOUDY    52  48  85 SE7       29.67R
FORT MC COY    DRIZZLE   45  44  98 E6        29.68F
CAMP DOUGLAS   LGT RAIN  46  46 100 NE2       29.69R FOG
VIROQUA        CLOUDY    48  48 100 S8        29.66F
WIS DELLS      LGT RAIN  49  45  85 SE10      29.69S
$$

...ELSEWHERE IN WISCONSIN...


CITY           SKY/WX    TMP DP  RH WIND       PRES   REMARKS
MILWAUKEE      CLOUDY    47  31  53 SE17      29.77F
MADISON        LGT RAIN  51  47  86 E7        29.70F FOG
GREEN BAY      LGT RAIN  42  38  85 E14       29.80F
EAU CLAIRE     CLOUDY    43  42  97 S3        29.67S FOG
BLACK RVR FLS  DRIZZLE   44  44 100 E5        29.67F
MEDFORD        RAIN      39  38  97 SE12      29.70S WCI  31
WAUSAU         LGT RAIN  40  40 100 SE16G28   29.73S FOG     WCI  31
WIS RAPIDS     LGT RAIN  43  40  89 SE8       29.73R FOG
MARSHFIELD     LGT RAIN  42  39  89 SE16      29.71S VSB 1
RICE LAKE      CLOUDY    42  40  94 SE7       29.69S FOG
$$

...NORTHEAST IOWA...


CITY           SKY/WX    TMP DP  RH WIND       PRES   REMARKS
WATERLOO       CLOUDY    50  47  89 NW13      29.66F
DUBUQUE        CLOUDY    53  48  83 S13       29.64S
DECORAH        CLOUDY    48  48 100 VRB6      29.67R FOG
MASON CITY     CLOUDY    49  43  80 NW16      29.70R
CHARLES CITY   CLOUDY    50  45  81 NW13      29.68S
OELWEIN        CLOUDY   N/A N/A N/A W5        29.67S FOG
$$

...ELSEWHERE IN IOWA...


CITY           SKY/WX    TMP DP  RH WIND       PRES   REMARKS
DES MOINES     CLOUDY    53  46  77 N10       29.69R
IOWA CITY      RAIN      53  53 100 W5        29.67F FOG
FORT DODGE     CLOUDY    55  45  67 NW10G18   29.71F
MARSHALLTOWN   CLOUDY    51  47  86 NW16      29.67R
CEDAR RAPIDS   RAIN      52  51  97 NW3       29.64F FOG
$$

...NORTHERN ILLINOIS...


CITY           SKY/WX    TMP DP  RH WIND       PRES   REMARKS
CHICAGO-OHARE  CLOUDY    62  29  28 SE20      29.72F
DUPAGE         CLOUDY    63  33  32 SE17      29.71F
CHICAGO-MIDWAY CLOUDY    62  30  29 SE15G26   29.73F
MOLINE         LGT RAIN  57  54  89 CALM      29.64F
ROCKFORD       LGT RAIN  62  39  42 SE14      29.69F
STERLING       CLOUDY    59  50  72 W5        29.66S
PEORIA         RAIN      66  52  60 S5        29.63S
$$

NOTE: "FAIR" INDICATES FEW OR NO CLOUDS BELOW 12,000 FEET WITH NO
SIGNIFICANT WEATHER AND/OR OBSTRUCTIONS TO VISIBILITY. WIND
SPEEDS ARE IN MILES-PER-HOUR.



USA.gov is the U.S. government's official web portal to all federal, state and local government web resources and services.